Погода в Петряте

Россия / Пермский край     57°27′51″N   57°26′39″E
темп.,
°C
ветер,
м/с
пор.,
м/с
влажн.,
%
обл.,
%
осадки,
мм/ч
давл.,
гПа
погр.,
м
17 апреля, сб
сб1723:00+4ссв36683 0.0 1028135
02:00+2ссв23730 0.0 102850
05:000с23735 0.0 102835
08:00+2с36555 0.0 1028224
11:00+7ссв46445 0.0 1027926
14:00+9с45435 0.0 10261394
17:00+10ссз56435 0.0 10241574
20:00+7ссз22596 0.0 102333
18 апреля, вс
вс1823:00+5зсз37705 0.0 1023123
02:00+3зсз39795 0.0 1021177
05:00+2зсз410860 0.0 1021223
08:00+3ссз51081100 0.0 1021822
11:00+4с78485 0.0 10241280
14:00+5св7736100 0.0 10262092
17:00+4св773499 0.0 10292088
20:00+2св58395 0.0 1030490
19 апреля, пн
пн1923:00−1всв49470 0.0 1033377
02:00−2в38500 0.0 1034312
05:00−3в25530 0.0 1036171
08:00−1в24375 0.0 1037443
11:00+2всв34295 0.0 10371731
14:00+4ссв33295 0.0 10361944
17:00+5с23295 0.0 10351943
20:00+2с11435 0.0 103610
20 апреля, вт
вт2023:000с22530 0.0 103616
02:00−1с22550 0.0 103714
05:00−2ссз11565 0.0 103812
08:00+1сз35480 0.0 1038320
11:00+4сз45362 0.0 10371015
14:00+7сз45334 0.0 10361265
17:00+8сз45340 0.0 10351348
20:00+5ссз33500 0.0 103531
21 апреля, ср
ср2123:00+3сз11570 0.0 103510
02:00+2з11590 0.0 103510
05:00+1з11610 0.0 103610
08:00+3з23520 0.0 1036175
11:00+8зюз11400 0.0 1035593
14:00+11зюз34345 0.0 10341236
17:00+12ююз23328 0.0 10331182
20:00+9ююз224650 0.0 103313